Location: Unspecified
(0.0000°N, 0.0000°E)
Time: 21:08:33
(UTC+02:00)

SeaSat 1 - Visible Passes

Search period start: 22 May 2015 00:00
Search period end: 01 June 2015 00:00
Orbit: 746 x 748 km, 108.0° (Epoch: 21 May)

Date Brightness Start Highest point End Pass type
(mag) Time Alt. Az. Time Alt. Az. Time Alt. Az.
22 May 4.3 21:17:03 10° S 21:21:12 27° WSW 21:25:16 10° NW visible
23 May 2.4 20:34:36 10° SSE 20:39:32 83° ENE 20:44:28 10° NNW visible
24 May 5.4 07:28:58 10° E 07:29:52 11° ESE 07:31:11 10° SE visible
24 May 4.5 21:31:19 10° SSW 21:35:16 23° WSW 21:39:04 10° WNW visible
25 May 2.5 20:48:38 10° SSE 20:53:35 86° WSW 20:58:31 10° NNW visible
26 May 4.7 21:45:39 10° SSW 21:49:19 20° WSW 21:52:49 10° WNW visible
27 May 2.6 21:02:42 10° SSE 21:07:38 74° WSW 21:12:32 10° NNW visible
28 May 3.4 20:21:43 10° SE 20:25:57 30° ENE 20:30:15 10° N visible
28 May 4.8 22:00:02 10° SSW 22:03:23 18° WSW 22:06:30 10° WNW visible
29 May 2.8 21:17:34 15° S 21:21:40 64° WSW 21:26:32 10° NNW visible
30 May 3.2 20:35:34 10° SE 20:39:59 34° ENE 20:44:28 10° N visible
30 May 4.9 22:15:02 12° SW 22:17:26 15° WSW 22:20:05 10° WNW visible
31 May 3.0 21:32:40 22° S 21:35:43 55° WSW 21:40:30 10° NW visible
